Airfield :
LOGIN :

Register | Disclaimer

   EN    FR    IT 

 










Legend :    VFR   Marginal VFR   IFR   Intensive IFR   Very Intensive IFR
Visi :
Ceiling :
>= 8 km
>= 3000ft
5 to 8 km
1000 to 3000 ft
1500m to 5 km
500 to 1000 ft
800 to 1500m
200 to 500 ft
< 800m
< 200 ft
Symbols :   Thunderstorms  Fog  Heavy snow  Heavy precipitations  Wind > 20 kt
SIGMETs :     Misc.  Thunderstorms  Icing  Turbulence  Mountain Waves  Volcanic Ashes







- Airport Elevation : 336 ft
- IATA code : GCI
- Download approach charts


EGJB - Guernsey

CURRENT METAR :
  • 160550Z 17001KT 9999 FEW006 BKN042 14/14 Q1014

EXPIRED METARs :
  • 160520Z VRB01KT 9999 FEW006 SCT012 14/14 Q1014
  • 160450Z 28001KT 9999 FEW006 BKN011 14/14 Q1014
  • 160420Z 32001KT 9999 FEW004 BKN011 14/14 Q1014
  • 160350Z 35002KT 9999 FEW004 BKN009 14/14 Q1014

TAF TAF EGJB
Valid from the 16 at 06:00 until the 16 at 15:00 UTC


160501Z 1606/1615 33006KT 9999 FEW005 BKN010
TEMPO 1606/1613 6000 BKN004
BECMG 1613/1615 BKN015
ATIS : +44 1481 238 957
No reported NOTAMs for that airfield.



MET'MAP, your aeronautical weather chart ! - Copyright ORBIFLY December 2007 - Disclaimer

ORBIFLY MET'MAP TEAM :

Programming & Development : Alexandra Zaïnal
Concept & Development : Baudouin d'Aumeries
Co-Development & Prog : Marc-Olivier Méhu
Technical & hardware support : Manuel Goepfert

Contact : metmap@orbifly.com




SOURCES & CREDITS :

   NOAA